Regional Weather Roundup
Issued by NWS New Orleans/Baton Rouge, LA

Home | Current Version | Previous Version | Graphics & Text | Print | Product List | Glossary On
Versions: 1 2 3 4 5 6 7 8 9 10 11 12 13 14 15 16 17 18 19 20 21 22 23 24 25 26 27 28 29 30 31 32 33 34 35 36 37 38 39 40 41 42 43 44 45 46 47 48 49 50
652
ASUS44 KLIX 271305
RWRLIX
NEW ORLEANS REGIONAL WEATHER ROUNDUP
NATIONAL WEATHER SERVICE NEW ORLEANS LA
700 AM CST TUE JAN 27 2015

NOTE: "FAIR" INDICATES FEW OR NO CLOUDS BELOW 12,000 FEET WITH NO
      SIGNIFICANT WEATHER AND/OR OBSTRUCTIONS TO VISIBILITY.
      SKY/WX - SKY CONDITION AND SIGNIFICANT WEATHER.
      TMP - AIR TEMPERATURE.     DP    - DEWPOINT TEMPERATURE.
      RH  - RELATIVE HUMIDITY.   PRES  - PRESSURE.
      HI  - HEAT INDEX.          WCI   - WIND CHILL INDEX.

*  THESE STATIONS ARE NOT NWS OR FAA STATIONS AND ARE NOT UNDER
   NWS QUALITY CONTROL.

LAZ038-040-048-061>063-065>067-069-271400-
SOUTHEAST LOUISIANA

CITY           SKY/WX    TMP DP  RH WIND       PRES   REMARKS
N.O. AUDUBON     N/A     44  46 100 MISG        N/A
N.O. INTL ARPT PTCLDY    48  40  73 W3        30.09R
N.O. LAKEFRONT CLEAR     53  45  74 W7        30.09R
N.O. DOWNTOWN*   N/A     48  39  71 CALM      30.09R
SLIDELL        CLEAR     46  39  76 CALM      30.08R
BATON ROUGE    CLEAR     39  36  89 CALM      30.09R
BOOTHVILLE     CLEAR     51  46  83 W7        30.10R
BELLE CHASSE   PTCLDY    47  41  80 CALM      30.09R
BOGALUSA*        N/A     37  34  90 CALM      30.09R
GALLIANO*      SUNNY     52  47  83 MISG      30.10S
NEW ROADS*       N/A     37  36  95 CALM      30.10R
GONZALES*        N/A     41  41 100 CALM      30.09R
HAMMOND*       CLEAR     41  37  87 CALM      30.10R
HOUMA*         CLEAR     46  45  93 SW6       30.10R
PORT FOURCHON* SUNNY     54  50  87 W8        30.14R

$$

MSZ070-080>082-271400-
SOUTHERN MISSISSIPPI

CITY           SKY/WX    TMP DP  RH WIND       PRES   REMARKS
MCCOMB         CLEAR     44  35  70 NW5       30.07R
GULFPORT       CLEAR     44  38  79 NW6       30.07R
BILOXI         CLEAR     47  39  75 NW8       30.07R
PASCAGOULA     CLEAR     43  37  79 NW3       30.07R
STENNIS ARPT*  CLEAR     37  34  87 CALM      30.08

$$

COASTAL OBSERVATIONS
LAKE AND NEARSHORE STATIONS

STATION/POSITION TIME  TEMP    WIND        PRES    WAVE
                       AIR SEA DIR/SP/G            HT/PER
                 (UTC) (F)     (DEG/KT/KT) (MB)    (FT/S)
PASCAGOULA       1300   51     290/ 10/ 13 1017.4
WAVELAND YACHT   1300   47     310/  7/  9 1017.4
GRAND ISLE       1300   55 55  290/ 12/ 14 1019.5
SOUTHWEST PASS   1300   58 45  300/ 15/ 19 1019.6
NEW CANAL        1300   52 51  260/  6/  8 1019.1
SHELL BEACH      1300   47 52  240/  6/  6 1018.7

OFFSHORE STATIONS

STATION/POSITION TIME  TEMP    WIND        PRES    WAVE
                       AIR SEA DIR/SP/G            HT/PER
                 (UTC) (F)     (DEG/KT/KT) (MB)    (FT/S)
64 S DAUPHIN ISL 1203   63 70  290/ 21/ 25 1018.4    5/ 5

$$




USA.gov is the U.S. government's official web portal to all federal, state and local government web resources and services.